NJE300 UHWW-UHHH

Flight info

Callsign NJE300
Flight time N/A
Altitude 35000
Route DOLMA2G DOLMA B356 TD B355 ARDEL ARDEL6D
Aircraft A20N/M-SDE2E3FGHIRWXY/LB1

Departure

Time 2026-04-27 05:11
Airport Vladivostok International Airport (UHWW)

Arrival

Time N/A
Airport Khabarovsk Novy Airport (UHHH)
Time Latitude Longitude Altitude Speed Heading
2026-04-27 05:04 43.39688 132.16421 67 ft 0 kts 152°
2026-04-27 05:05 43.39705 132.16408 64 ft 3 kts 152°
2026-04-27 05:05 43.39723 132.16394 63 ft 1 kts 140°
2026-04-27 05:06 43.39730 132.16383 59 ft 2 kts 90°
2026-04-27 05:06 43.39728 132.16368 64 ft 2 kts 66°
2026-04-27 05:06 43.39726 132.16363 64 ft 0 kts 65°
2026-04-27 05:07 43.39727 132.16365 69 ft 2 kts 65°
2026-04-27 05:08 43.39735 132.16373 59 ft 3 kts 31°
2026-04-27 05:08 43.39770 132.16392 64 ft 8 kts 19°
2026-04-27 05:08 43.39834 132.16397 67 ft 11 kts 343°
2026-04-27 05:08 43.39917 132.16383 66 ft 14 kts 22°
2026-04-27 05:09 43.39982 132.16499 67 ft 17 kts 60°
2026-04-27 05:09 43.40045 132.16657 63 ft 20 kts 62°
2026-04-27 05:09 43.40117 132.16841 63 ft 23 kts 62°
2026-04-27 05:09 43.40195 132.16999 62 ft 18 kts 28°
2026-04-27 05:10 43.40315 132.16941 66 ft 20 kts 333°
2026-04-27 05:10 43.40439 132.16846 60 ft 14 kts 313°
2026-04-27 05:10 43.40430 132.16788 59 ft 7 kts 241°
2026-04-27 05:10 43.40425 132.16777 60 ft 3 kts 241°
2026-04-27 05:11 43.40387 132.16684 64 ft 37 kts 241°
2026-04-27 05:11 43.40144 132.16080 65 ft 104 kts 241°
2026-04-27 05:11 43.39707 132.14998 116 ft 148 kts 241°
2026-04-27 05:11 43.39223 132.13795 722 ft 142 kts 241°
2026-04-27 05:12 43.38726 132.12578 1242 ft 151 kts 242°
2026-04-27 05:12 43.38205 132.11307 1843 ft 155 kts 243°
2026-04-27 05:12 43.37650 132.09941 2231 ft 173 kts 243°
2026-04-27 05:12 43.37031 132.08406 2661 ft 195 kts 243°
2026-04-27 05:13 43.36341 132.06692 3125 ft 215 kts 243°
2026-04-27 05:13 43.35576 132.04798 3744 ft 234 kts 243°
2026-04-27 05:13 43.34780 132.02840 4826 ft 235 kts 244°
2026-04-27 05:13 43.34254 132.00755 5962 ft 229 kts 268°
2026-04-27 05:14 43.34476 131.98628 7062 ft 226 kts 294°
2026-04-27 05:14 43.35383 131.96900 8027 ft 230 kts 320°
2026-04-27 05:14 43.36836 131.95931 9010 ft 239 kts 347°
2026-04-27 05:14 43.38522 131.96063 9964 ft 252 kts 15°
2026-04-27 05:15 43.40045 131.97361 10773 ft 268 kts 41°
2026-04-27 05:15 43.41350 131.99337 11304 ft 292 kts 46°
2026-04-27 05:15 43.42698 132.01590 11696 ft 318 kts 47°
2026-04-27 05:15 43.44159 132.04053 11991 ft 344 kts 47°
2026-04-27 05:16 43.45740 132.06676 12416 ft 363 kts 47°
2026-04-27 05:16 43.47389 132.09373 13149 ft 372 kts 46°
2026-04-27 05:16 43.49068 132.12085 13870 ft 380 kts 45°
2026-04-27 05:16 43.50803 132.14891 14614 ft 386 kts 45°
2026-04-27 05:17 43.52565 132.17730 15400 ft 392 kts 45°
2026-04-27 05:17 43.54352 132.20606 16142 ft 398 kts 45°
2026-04-27 05:17 43.56173 132.23525 16868 ft 403 kts 45°
2026-04-27 05:17 43.58003 132.26433 17509 ft 410 kts 45°
2026-04-27 05:18 43.59882 132.29445 18266 ft 414 kts 45°
2026-04-27 05:18 43.61768 132.32500 18892 ft 421 kts 45°
2026-04-27 05:18 43.63676 132.35601 19522 ft 425 kts 45°
2026-04-27 05:18 43.65608 132.38724 20180 ft 428 kts 45°
2026-04-27 05:19 43.67546 132.41876 20830 ft 433 kts 45°
2026-04-27 05:19 43.69515 132.45067 21419 ft 439 kts 44°
2026-04-27 05:19 43.71479 132.48256 22045 ft 443 kts 44°
2026-04-27 05:19 43.73483 132.51515 22672 ft 447 kts 44°
2026-04-27 05:20 43.75508 132.54808 23329 ft 451 kts 44°
2026-04-27 05:20 43.77545 132.58126 23881 ft 455 kts 44°
2026-04-27 05:20 43.79605 132.61484 24380 ft 459 kts 44°
2026-04-27 05:20 43.81814 132.64663 24919 ft 455 kts 35°
2026-04-27 05:21 43.84202 132.67597 25361 ft 461 kts 34°
2026-04-27 05:21 43.86612 132.70558 25895 ft 463 kts 34°
2026-04-27 05:21 43.89034 132.73536 26375 ft 467 kts 34°
2026-04-27 05:21 43.91474 132.76541 26836 ft 470 kts 34°
2026-04-27 05:22 43.93902 132.79536 27284 ft 474 kts 34°
2026-04-27 05:22 43.96377 132.82593 27743 ft 477 kts 34°
2026-04-27 05:22 43.98863 132.85669 28145 ft 482 kts 34°
2026-04-27 05:22 44.01390 132.88796 28572 ft 485 kts 34°
2026-04-27 05:23 44.03918 132.91932 28994 ft 487 kts 34°
2026-04-27 05:23 44.06452 132.95076 29392 ft 490 kts 34°
2026-04-27 05:23 44.09003 132.98247 29784 ft 493 kts 34°
2026-04-27 05:23 44.11570 133.01444 30146 ft 496 kts 34°
2026-04-27 05:24 44.14119 133.04621 30488 ft 499 kts 35°
2026-04-27 05:24 44.16718 133.07863 30785 ft 503 kts 35°
2026-04-27 05:24 44.19328 133.11121 31141 ft 504 kts 35°
2026-04-27 05:24 44.22067 133.14126 31554 ft 499 kts 29°
2026-04-27 05:25 44.24869 133.16994 31965 ft 499 kts 30°
2026-04-27 05:25 44.27677 133.19877 32384 ft 500 kts 30°
2026-04-27 05:25 44.30470 133.22751 32827 ft 499 kts 31°
2026-04-27 05:25 44.33274 133.25641 33200 ft 500 kts 31°
2026-04-27 05:26 44.36074 133.28533 33623 ft 499 kts 31°
2026-04-27 05:26 44.38861 133.31418 34015 ft 499 kts 32°
2026-04-27 05:26 44.41650 133.34307 34333 ft 499 kts 32°
2026-04-27 05:26 44.44439 133.37200 34640 ft 499 kts 32°
2026-04-27 05:27 44.47228 133.40095 34844 ft 498 kts 32°
2026-04-27 05:27 44.52773 133.45862 34947 ft 496 kts 32°
2026-04-27 05:28 44.58274 133.51601 34950 ft 496 kts 32°
2026-04-27 05:28 44.63817 133.57396 34951 ft 496 kts 32°
2026-04-27 05:29 44.69370 133.63212 34951 ft 500 kts 32°
2026-04-27 05:29 44.74937 133.69063 34950 ft 499 kts 32°
2026-04-27 05:30 44.80490 133.74911 34941 ft 498 kts 32°
2026-04-27 05:30 44.86032 133.80761 34939 ft 497 kts 33°
2026-04-27 05:31 44.91570 133.86622 34937 ft 497 kts 33°
2026-04-27 05:31 44.97191 133.92316 34935 ft 496 kts 30°
2026-04-27 05:32 45.02862 133.97895 34950 ft 500 kts 31°
2026-04-27 05:32 45.08522 134.03523 34952 ft 498 kts 31°
2026-04-27 05:33 45.14174 134.09183 34947 ft 498 kts 31°
2026-04-27 05:33 45.19836 134.14868 34948 ft 500 kts 31°
2026-04-27 05:34 45.25523 134.20593 34941 ft 500 kts 31°
2026-04-27 05:34 45.31223 134.26341 34942 ft 509 kts 31°
2026-04-27 05:35 45.37035 134.32219 34946 ft 512 kts 32°
2026-04-27 05:35 45.42804 134.38072 34943 ft 512 kts 32°
2026-04-27 05:36 45.48606 134.43970 34938 ft 512 kts 32°
2026-04-27 05:36 45.54412 134.49889 34947 ft 513 kts 32°
2026-04-27 05:37 45.60231 134.55837 34943 ft 515 kts 32°
2026-04-27 05:37 45.66068 134.61819 34960 ft 516 kts 32°
2026-04-27 05:38 45.71874 134.67787 34936 ft 512 kts 32°
2026-04-27 05:38 45.77677 134.73760 34937 ft 514 kts 32°
2026-04-27 05:39 45.83456 134.79729 34933 ft 514 kts 32°
2026-04-27 05:39 45.89511 134.85058 34933 ft 506 kts 18°
2026-04-27 05:40 45.96209 134.87406 34935 ft 493 kts 359°
2026-04-27 05:40 46.03068 134.88312 34940 ft 494 kts 360°
2026-04-27 05:41 46.09919 134.89232 34953 ft 494 kts 360°
2026-04-27 05:41 46.16781 134.90151 34949 ft 494 kts 360°
2026-04-27 05:42 46.23611 134.91063 34942 ft 494 kts 360°
2026-04-27 05:42 46.30465 134.91981 34939 ft 494 kts 360°
2026-04-27 05:43 46.37281 134.92896 34968 ft 494 kts
2026-04-27 05:43 46.44143 134.93820 34951 ft 493 kts
2026-04-27 05:44 46.50981 134.94742 34934 ft 493 kts
2026-04-27 05:44 46.57808 134.95666 34930 ft 493 kts
2026-04-27 05:45 46.64590 134.96586 34930 ft 492 kts
2026-04-27 05:45 46.71391 134.97512 34809 ft 484 kts
2026-04-27 05:45 46.74716 134.97969 34580 ft 478 kts
2026-04-27 05:46 46.78029 134.98421 34163 ft 478 kts
2026-04-27 05:46 46.81360 134.98783 33364 ft 478 kts 355°
2026-04-27 05:46 46.84673 134.98594 32513 ft 474 kts 349°
2026-04-27 05:46 46.87956 134.98164 31772 ft 473 kts 349°
2026-04-27 05:47 46.91238 134.97767 31063 ft 472 kts 349°
2026-04-27 05:47 46.94490 134.97381 30542 ft 465 kts 349°
2026-04-27 05:47 46.97701 134.96997 29975 ft 460 kts 349°
2026-04-27 05:47 47.00846 134.96615 29368 ft 454 kts 349°
2026-04-27 05:48 47.03972 134.96232 28809 ft 447 kts 349°
2026-04-27 05:48 47.07089 134.95849 28263 ft 440 kts 349°
2026-04-27 05:48 47.10088 134.95477 27732 ft 434 kts 349°
2026-04-27 05:48 47.13076 134.95108 27205 ft 428 kts 349°
2026-04-27 05:49 47.16030 134.94741 26671 ft 423 kts 349°
2026-04-27 05:49 47.18950 134.94376 26119 ft 419 kts 349°
2026-04-27 05:49 47.21839 134.94016 25582 ft 415 kts 349°
2026-04-27 05:49 47.23740 134.93779 25260 ft 412 kts 349°
2026-04-27 05:50 47.26593 134.93407 24678 ft 410 kts 350°
2026-04-27 05:50 47.29422 134.93051 24162 ft 406 kts 351°
2026-04-27 05:50 47.32227 134.92700 23637 ft 403 kts 352°
2026-04-27 05:50 47.35015 134.92353 23050 ft 399 kts 352°
2026-04-27 05:51 47.37772 134.92008 22517 ft 394 kts 352°
2026-04-27 05:51 47.40488 134.91668 21989 ft 389 kts 352°
2026-04-27 05:51 47.43177 134.91330 21462 ft 385 kts 352°
2026-04-27 05:51 47.45835 134.90996 20945 ft 381 kts 352°
2026-04-27 05:52 47.48466 134.90665 20428 ft 378 kts 352°
2026-04-27 05:52 47.51077 134.90336 19911 ft 374 kts 353°
2026-04-27 05:52 47.53659 134.90007 19438 ft 370 kts 353°
2026-04-27 05:52 47.56177 134.89689 18931 ft 367 kts 354°
2026-04-27 05:53 47.58715 134.89370 18412 ft 365 kts 354°
2026-04-27 05:53 47.61230 134.89054 17862 ft 362 kts 354°
2026-04-27 05:53 47.63736 134.88740 17341 ft 358 kts 354°
2026-04-27 05:53 47.66209 134.88428 16822 ft 354 kts 354°
2026-04-27 05:54 47.68654 134.88119 16322 ft 351 kts 354°
2026-04-27 05:54 47.71075 134.87813 15799 ft 348 kts 354°
2026-04-27 05:54 47.73480 134.87509 15309 ft 345 kts 354°
2026-04-27 05:54 47.75863 134.87208 14808 ft 342 kts 354°
2026-04-27 05:55 47.78228 134.86909 14308 ft 340 kts 354°
2026-04-27 05:55 47.80578 134.86612 13815 ft 338 kts 354°
2026-04-27 05:55 47.82910 134.86316 13292 ft 335 kts 354°
2026-04-27 05:55 47.85221 134.86022 12805 ft 331 kts 355°
2026-04-27 05:56 47.87508 134.85730 12323 ft 327 kts 354°
2026-04-27 05:56 47.89733 134.85446 11851 ft 324 kts 355°
2026-04-27 05:56 47.91970 134.85160 11370 ft 321 kts 355°
2026-04-27 05:56 47.94182 134.84875 10907 ft 317 kts 355°
2026-04-27 05:57 47.96377 134.84593 10441 ft 314 kts 355°
2026-04-27 05:57 47.98517 134.84320 10241 ft 303 kts 355°
2026-04-27 05:57 48.00576 134.84058 10077 ft 291 kts 355°
2026-04-27 05:57 48.02570 134.83804 9743 ft 286 kts 355°
2026-04-27 05:58 48.04522 134.83554 9562 ft 277 kts 355°
2026-04-27 05:58 48.06469 134.83306 9427 ft 282 kts 355°
2026-04-27 05:58 48.08426 134.83050 9121 ft 283 kts 356°
2026-04-27 05:58 48.10383 134.82798 8752 ft 280 kts 356°
2026-04-27 05:59 48.12294 134.82553 8384 ft 277 kts 357°
2026-04-27 05:59 48.14206 134.82312 8011 ft 273 kts 356°
2026-04-27 05:59 48.16090 134.82071 7647 ft 270 kts 357°
2026-04-27 05:59 48.17950 134.81831 7287 ft 266 kts 357°
2026-04-27 06:00 48.21555 134.81554 7002 ft 250 kts 10°
2026-04-27 06:00 48.23169 134.82276 6902 ft 237 kts 27°
2026-04-27 06:00 48.24598 134.83380 6698 ft 224 kts 27°
2026-04-27 06:01 48.25930 134.84392 6466 ft 205 kts 27°
2026-04-27 06:01 48.27154 134.85314 6217 ft 192 kts 27°
2026-04-27 06:01 48.28350 134.86213 5923 ft 193 kts 27°
2026-04-27 06:01 48.29525 134.87122 5576 ft 189 kts 32°
2026-04-27 06:02 48.30621 134.88259 5348 ft 192 kts 39°
2026-04-27 06:02 48.31622 134.89534 5110 ft 185 kts 43°
2026-04-27 06:02 48.32574 134.90844 4889 ft 191 kts 43°
2026-04-27 06:02 48.33545 134.92177 4654 ft 189 kts 43°
2026-04-27 06:03 48.34524 134.93520 4405 ft 189 kts 43°
2026-04-27 06:03 48.35482 134.94834 4169 ft 184 kts 44°
2026-04-27 06:03 48.36438 134.96148 3936 ft 188 kts 44°
2026-04-27 06:03 48.37398 134.97463 3703 ft 184 kts 44°
2026-04-27 06:04 48.38335 134.98749 3481 ft 182 kts 44°
2026-04-27 06:04 48.39273 135.00037 3252 ft 184 kts 44°
2026-04-27 06:04 48.40217 135.01331 3020 ft 186 kts 43°
2026-04-27 06:04 48.41169 135.02635 2798 ft 183 kts 43°
2026-04-27 06:05 48.42108 135.03924 2562 ft 185 kts 43°
2026-04-27 06:05 48.43063 135.05231 2352 ft 184 kts 43°
2026-04-27 06:05 48.43987 135.06495 2105 ft 174 kts 45°
2026-04-27 06:05 48.44835 135.07657 1909 ft 156 kts 44°
2026-04-27 06:06 48.45596 135.08700 1722 ft 140 kts 44°
2026-04-27 06:06 48.46279 135.09635 1552 ft 125 kts 44°
2026-04-27 06:06 48.46890 135.10471 1403 ft 117 kts 44°
2026-04-27 06:06 48.47293 135.11025 1312 ft 118 kts 43°